owner,sensor,date,latitude,longitude,vertical_datum,direction_of_sea_water_velocity,sea_water_speed,upward_sea_water_velocity,qcFlag 
TABS,ioos:station:wmo:42049:1,2009-06-01T00:00:00Z,28.3507,-96.0058,2.0,44.14743356,9.978381632,-99999.0,'11133222,11111222,99999999' 
TABS,ioos:station:wmo:42049:1,2009-06-01T00:30:00Z,28.3507,-96.0058,2.0,29.05474662,11.63406206,-99999.0,'11111222,11111222,99999999' 
TABS,ioos:station:wmo:42049:1,2009-06-01T01:00:00Z,28.3507,-96.0058,2.0,16.16544013,10.38041425,-99999.0,'11111222,11111222,99999999' 
TABS,ioos:station:wmo:42049:1,2009-06-01T01:30:00Z,28.3507,-96.0058,2.0,4.778166115,9.964627439,-99999.0,'11133222,11111222,99999999' 
TABS,ioos:station:wmo:42049:1,2009-06-01T02:00:00Z,28.3507,-96.0058,2.0,7.067616078,13.57312786,-99999.0,'11111222,11111222,99999999' 
TABS,ioos:station:wmo:42049:1,2009-06-01T02:30:00Z,28.3507,-96.0058,2.0,5.777521688,17.08679022,-99999.0,'11111222,11111222,99999999' 
TABS,ioos:station:wmo:42049:1,2009-06-01T03:00:00Z,28.3507,-96.0058,2.0,2.675885654,20.99288689,-99999.0,'11111222,11111222,99999999' 
TABS,ioos:station:wmo:42049:1,2009-06-01T03:30:00Z,28.3507,-96.0058,2.0,0.916234548,21.8927979,-99999.0,'11111222,11111222,99999999' 
TABS,ioos:station:wmo:42049:1,2009-06-01T04:00:00Z,28.3507,-96.0058,2.0,0.965186837,27.31387376,-99999.0,'11111222,11111222,99999999' 
TABS,ioos:station:wmo:42049:1,2009-06-01T04:30:00Z,28.3507,-96.0058,2.0,4.412611527,28.8555246,-99999.0,'11111222,11111222,99999999' 
TABS,ioos:station:wmo:42049:1,2009-06-01T05:00:00Z,28.3507,-96.0058,2.0,9.31355931,29.72179335,-99999.0,'11111222,11111222,99999999' 
TABS,ioos:station:wmo:42049:1,2009-06-01T05:30:00Z,28.3507,-96.0058,2.0,5.523373442,29.5069907,-99999.0,'11111222,11111222,99999999' 
TABS,ioos:station:wmo:42049:1,2009-06-01T06:00:00Z,28.3507,-96.0058,2.0,5.535288508,34.10903986,-99999.0,'11111222,11111222,99999999' 
TABS,ioos:station:wmo:42049:1,2009-06-01T06:30:00Z,28.3507,-96.0058,2.0,9.445198436,38.08631513,-99999.0,'11111222,11111222,99999999' 
TABS,ioos:station:wmo:42049:1,2009-06-01T07:00:00Z,28.3507,-96.0058,2.0,15.19361637,41.55240186,-99999.0,'11111222,11111222,99999999' 
TABS,ioos:station:wmo:42049:1,2009-06-01T07:30:00Z,28.3507,-96.0058,2.0,15.70310652,39.27585772,-99999.0,'11111222,11111222,99999999' 
TABS,ioos:station:wmo:42049:1,2009-06-01T08:00:00Z,28.3507,-96.0058,2.0,17.39623877,47.96382491,-99999.0,'11111222,11111222,99999999' 
TABS,ioos:station:wmo:42049:1,2009-06-01T08:30:00Z,28.3507,-96.0058,2.0,19.29658155,46.69314511,-99999.0,'11111222,11111222,99999999' 
TABS,ioos:station:wmo:42049:1,2009-06-01T09:00:00Z,28.3507,-96.0058,2.0,18.6157377,47.14663191,-99999.0,'11111222,11111222,99999999' 
TABS,ioos:station:wmo:42049:1,2009-06-01T09:30:00Z,28.3507,-96.0058,2.0,16.52583921,46.79290224,-99999.0,'11111222,11111222,99999999' 
TABS,ioos:station:wmo:42049:1,2009-06-01T10:00:00Z,28.3507,-96.0058,2.0,16.89957743,45.78724932,-99999.0,'11111222,11111222,99999999' 
TABS,ioos:station:wmo:42049:1,2009-06-01T10:30:00Z,28.3507,-96.0058,2.0,16.61521369,43.01602492,-99999.0,'11111222,11111222,99999999' 
TABS,ioos:station:wmo:42049:1,2009-06-01T11:00:00Z,28.3507,-96.0058,2.0,15.27085028,41.99266245,-99999.0,'11111222,11111222,99999999' 
TABS,ioos:station:wmo:42049:1,2009-06-01T11:30:00Z,28.3507,-96.0058,2.0,13.55193772,42.16390044,-99999.0,'11111222,11111222,99999999' 
TABS,ioos:station:wmo:42049:1,2009-06-01T12:00:00Z,28.3507,-96.0058,2.0,10.75580171,38.31308001,-99999.0,'11111222,11111222,99999999' 
TABS,ioos:station:wmo:42049:1,2009-06-01T12:30:00Z,28.3507,-96.0058,2.0,12.86676085,37.90166355,-99999.0,'11111222,11111222,99999999' 
TABS,ioos:station:wmo:42049:1,2009-06-01T13:00:00Z,28.3507,-96.0058,2.0,11.41189614,35.32841632,-99999.0,'11111222,11111222,99999999' 
TABS,ioos:station:wmo:42049:1,2009-06-01T13:30:00Z,28.3507,-96.0058,2.0,12.70969936,36.45317544,-99999.0,'11111222,11111222,99999999' 
TABS,ioos:station:wmo:42049:1,2009-06-01T14:00:00Z,28.3507,-96.0058,2.0,13.89442475,35.23083309,-99999.0,'11111222,11111222,99999999' 
TABS,ioos:station:wmo:42049:1,2009-06-01T14:30:00Z,28.3507,-96.0058,2.0,8.496343694,35.19625122,-99999.0,'11111222,11111222,99999999' 
TABS,ioos:station:wmo:42049:1,2009-06-01T15:00:00Z,28.3507,-96.0058,2.0,13.0442104,33.89458511,-99999.0,'11111222,11111222,99999999' 
TABS,ioos:station:wmo:42049:1,2009-06-01T15:30:00Z,28.3507,-96.0058,2.0,14.85146569,30.86092999,-99999.0,'11111222,11111222,99999999' 
TABS,ioos:station:wmo:42049:1,2009-06-01T16:00:00Z,28.3507,-96.0058,2.0,13.92414385,28.46646097,-99999.0,'11111222,11111222,99999999' 
TABS,ioos:station:wmo:42049:1,2009-06-01T16:30:00Z,28.3507,-96.0058,2.0,20.54777144,23.847134,-99999.0,'11111222,11111222,99999999' 
TABS,ioos:station:wmo:42049:1,2009-06-01T17:00:00Z,28.3507,-96.0058,2.0,20.79019782,24.93348351,-99999.0,'11111222,11111222,99999999' 
TABS,ioos:station:wmo:42049:1,2009-06-01T17:30:00Z,28.3507,-96.0058,2.0,31.04083095,17.88045861,-99999.0,'11111222,11111222,99999999' 
TABS,ioos:station:wmo:42049:1,2009-06-01T18:00:00Z,28.3507,-96.0058,2.0,32.6843208,17.53677564,-99999.0,'11111222,11111222,99999999' 
TABS,ioos:station:wmo:42049:1,2009-06-01T18:30:00Z,28.3507,-96.0058,2.0,61.08974231,13.11434329,-99999.0,'11111222,11111222,99999999' 
TABS,ioos:station:wmo:42049:1,2009-06-01T19:00:00Z,28.3507,-96.0058,2.0,74.29341012,8.57,-99999.0,'11133222,11111222,99999999' 
TABS,ioos:station:wmo:42049:1,2009-06-01T19:30:00Z,28.3507,-96.0058,2.0,58.60141909,7.908027567,-99999.0,'11133222,11111222,99999999' 
TABS,ioos:station:wmo:42049:1,2009-06-01T20:00:00Z,28.3507,-96.0058,2.0,89.719485,8.170097919,-99999.0,'11133222,11111222,99999999' 
TABS,ioos:station:wmo:42049:1,2009-06-01T20:30:00Z,28.3507,-96.0058,2.0,107.4722324,8.0934109,-99999.0,'11133222,11111222,99999999' 
TABS,ioos:station:wmo:42049:1,2009-06-01T21:00:00Z,28.3507,-96.0058,2.0,146.5314749,10.75294378,-99999.0,'11111222,11111222,99999999' 
TABS,ioos:station:wmo:42049:1,2009-06-01T21:30:00Z,28.3507,-96.0058,2.0,146.6561101,8.259636796,-99999.0,'11133222,11111222,99999999' 
TABS,ioos:station:wmo:42049:1,2009-06-01T22:00:00Z,28.3507,-96.0058,2.0,163.7687407,5.509600711,-99999.0,'11133222,11111222,99999999' 
TABS,ioos:station:wmo:42049:1,2009-06-01T22:30:00Z,28.3507,-96.0058,2.0,201.1157654,4.191443665,-99999.0,'11133222,11111222,99999999' 
TABS,ioos:station:wmo:42049:1,2009-06-01T23:00:00Z,28.3507,-96.0058,2.0,193.675938,6.175078947,-99999.0,'11133222,11111222,99999999' 
TABS,ioos:station:wmo:42049:1,2009-06-01T23:30:00Z,28.3507,-96.0058,2.0,220.5159914,8.773762021,-99999.0,'11133222,11111222,99999999' 
TABS,ioos:station:wmo:42049:1,2009-06-02T00:00:00Z,28.3507,-96.0058,2.0,263.5600539,8.916254819,-99999.0,'11133222,11111222,99999999' 
TABS,ioos:station:wmo:42049:1,2009-06-02T00:30:00Z,28.3507,-96.0058,2.0,313.0753707,14.52509897,-99999.0,'11111222,11111222,99999999' 
TABS,ioos:station:wmo:42049:1,2009-06-02T01:00:00Z,28.3507,-96.0058,2.0,323.4910496,16.52232732,-99999.0,'11111222,11111222,99999999' 
TABS,ioos:station:wmo:42049:1,2009-06-02T01:30:00Z,28.3507,-96.0058,2.0,319.7276978,20.42,-99999.0,'11111222,11111222,99999999' 
TABS,ioos:station:wmo:42049:1,2009-06-02T02:00:00Z,28.3507,-96.0058,2.0,328.4325103,24.56510737,-99999.0,'11111222,11111222,99999999' 
TABS,ioos:station:wmo:42049:1,2009-06-02T02:30:00Z,28.3507,-96.0058,2.0,326.2408871,25.21114238,-99999.0,'11111222,11111222,99999999' 
TABS,ioos:station:wmo:42049:1,2009-06-02T03:00:00Z,28.3507,-96.0058,2.0,329.3210563,30.0452076,-99999.0,'11111222,11111222,99999999' 
TABS,ioos:station:wmo:42049:1,2009-06-02T03:30:00Z,28.3507,-96.0058,2.0,336.458928,32.04722141,-99999.0,'11111222,11111222,99999999' 
TABS,ioos:station:wmo:42049:1,2009-06-02T04:00:00Z,28.3507,-96.0058,2.0,327.7071463,30.60358476,-99999.0,'11111222,11111222,99999999' 
TABS,ioos:station:wmo:42049:1,2009-06-02T04:30:00Z,28.3507,-96.0058,2.0,330.0528691,31.22966058,-99999.0,'11111222,11111222,99999999' 
TABS,ioos:station:wmo:42049:1,2009-06-02T05:00:00Z,28.3507,-96.0058,2.0,340.3910343,30.24405065,-99999.0,'11111222,11111222,99999999' 
TABS,ioos:station:wmo:42049:1,2009-06-02T05:30:00Z,28.3507,-96.0058,2.0,334.4027278,37.07929341,-99999.0,'11111222,11111222,99999999' 
TABS,ioos:station:wmo:42049:1,2009-06-02T06:00:00Z,28.3507,-96.0058,2.0,334.301841,29.8638678,-99999.0,'11111222,11111222,99999999' 
TABS,ioos:station:wmo:42049:1,2009-06-02T06:30:00Z,28.3507,-96.0058,2.0,340.3791817,31.77504996,-99999.0,'11111222,11111222,99999999' 
TABS,ioos:station:wmo:42049:1,2009-06-02T07:00:00Z,28.3507,-96.0058,2.0,342.1120769,37.11418058,-99999.0,'11111222,11111222,99999999' 
TABS,ioos:station:wmo:42049:1,2009-06-02T07:30:00Z,28.3507,-96.0058,2.0,337.3840407,36.30153853,-99999.0,'11111222,11111222,99999999' 
TABS,ioos:station:wmo:42049:1,2009-06-02T08:00:00Z,28.3507,-96.0058,2.0,340.85588,33.96862817,-99999.0,'11111222,11111222,99999999' 
TABS,ioos:station:wmo:42049:1,2009-06-02T08:30:00Z,28.3507,-96.0058,2.0,338.2747643,35.03888411,-99999.0,'11111222,11111222,99999999' 
TABS,ioos:station:wmo:42049:1,2009-06-02T09:00:00Z,28.3507,-96.0058,2.0,340.6102828,33.01244008,-99999.0,'11111222,11111222,99999999' 
TABS,ioos:station:wmo:42049:1,2009-06-02T09:30:00Z,28.3507,-96.0058,2.0,335.468697,36.80202168,-99999.0,'11111222,11111222,99999999' 
TABS,ioos:station:wmo:42049:1,2009-06-02T10:00:00Z,28.3507,-96.0058,2.0,335.1864097,33.07347578,-99999.0,'11111222,11111222,99999999' 
TABS,ioos:station:wmo:42049:1,2009-06-02T10:30:00Z,28.3507,-96.0058,2.0,340.4655958,34.93062839,-99999.0,'11111222,11111222,99999999' 
TABS,ioos:station:wmo:42049:1,2009-06-02T11:00:00Z,28.3507,-96.0058,2.0,339.1664773,34.52754408,-99999.0,'11111222,11111222,99999999' 
TABS,ioos:station:wmo:42049:1,2009-06-02T11:30:00Z,28.3507,-96.0058,2.0,338.8966513,30.49529308,-99999.0,'11111222,11111222,99999999' 
TABS,ioos:station:wmo:42049:1,2009-06-02T12:00:00Z,28.3507,-96.0058,2.0,342.09309,37.0761163,-99999.0,'11111222,11111222,99999999' 
TABS,ioos:station:wmo:42049:1,2009-06-02T12:30:00Z,28.3507,-96.0058,2.0,341.9227337,37.51166752,-99999.0,'11111222,11111222,99999999' 
TABS,ioos:station:wmo:42049:1,2009-06-02T13:00:00Z,28.3507,-96.0058,2.0,347.1082443,38.50050649,-99999.0,'11111222,11111222,99999999' 
TABS,ioos:station:wmo:42049:1,2009-06-02T13:30:00Z,28.3507,-96.0058,2.0,348.058857,34.70093515,-99999.0,'11111222,11111222,99999999' 
TABS,ioos:station:wmo:42049:1,2009-06-02T14:00:00Z,28.3507,-96.0058,2.0,345.2718458,36.54065818,-99999.0,'11111222,11111222,99999999' 
TABS,ioos:station:wmo:42049:1,2009-06-02T14:30:00Z,28.3507,-96.0058,2.0,343.7429923,38.86400005,-99999.0,'11111222,11111222,99999999' 
TABS,ioos:station:wmo:42049:1,2009-06-02T15:00:00Z,28.3507,-96.0058,2.0,339.9179542,35.53022516,-99999.0,'11111222,11111222,99999999' 
TABS,ioos:station:wmo:42049:1,2009-06-02T15:30:00Z,28.3507,-96.0058,2.0,335.4522005,35.06985743,-99999.0,'11111222,11111222,99999999' 
TABS,ioos:station:wmo:42049:1,2009-06-02T16:00:00Z,28.3507,-96.0058,2.0,337.6065743,34.49103797,-99999.0,'11111222,11111222,99999999' 
TABS,ioos:station:wmo:42049:1,2009-06-02T16:30:00Z,28.3507,-96.0058,2.0,332.3654335,34.73218968,-99999.0,'11111222,11111222,99999999' 
TABS,ioos:station:wmo:42049:1,2009-06-02T17:00:00Z,28.3507,-96.0058,2.0,336.1633276,33.82532335,-99999.0,'11111222,11111222,99999999' 
TABS,ioos:station:wmo:42049:1,2009-06-02T17:30:00Z,28.3507,-96.0058,2.0,339.5249513,30.73152453,-99999.0,'11111222,11111222,99999999' 
TABS,ioos:station:wmo:42049:1,2009-06-02T18:00:00Z,28.3507,-96.0058,2.0,340.3245616,26.43335204,-99999.0,'11111222,11111222,99999999' 
TABS,ioos:station:wmo:42049:1,2009-06-02T18:30:00Z,28.3507,-96.0058,2.0,338.704529,22.30287874,-99999.0,'11111222,11111222,99999999' 
TABS,ioos:station:wmo:42049:1,2009-06-02T19:00:00Z,28.3507,-96.0058,2.0,334.4247289,20.1991782,-99999.0,'11111222,11111222,99999999' 
TABS,ioos:station:wmo:42049:1,2009-06-02T19:30:00Z,28.3507,-96.0058,2.0,336.7624455,17.26023464,-99999.0,'11111222,11111222,99999999' 
TABS,ioos:station:wmo:42049:1,2009-06-02T20:00:00Z,28.3507,-96.0058,2.0,332.6763831,14.18238696,-99999.0,'11111222,11111222,99999999' 
TABS,ioos:station:wmo:42049:1,2009-06-02T20:30:00Z,28.3507,-96.0058,2.0,329.6595815,14.19406214,-99999.0,'11111222,11111222,99999999' 
TABS,ioos:station:wmo:42049:1,2009-06-02T21:00:00Z,28.3507,-96.0058,2.0,325.0429991,12.16477702,-99999.0,'11111222,11111222,99999999' 
TABS,ioos:station:wmo:42049:1,2009-06-02T21:30:00Z,28.3507,-96.0058,2.0,300.0555278,11.68052225,-99999.0,'11111222,11111222,99999999' 
TABS,ioos:station:wmo:42049:1,2009-06-02T22:00:00Z,28.3507,-96.0058,2.0,299.6550744,9.45890057,-99999.0,'11133222,11111222,99999999' 
TABS,ioos:station:wmo:42049:1,2009-06-02T22:30:00Z,28.3507,-96.0058,2.0,284.09707,11.49619502,-99999.0,'11111222,11111222,99999999' 
TABS,ioos:station:wmo:42049:1,2009-06-02T23:00:00Z,28.3507,-96.0058,2.0,287.24184,14.27129286,-99999.0,'11111222,11111222,99999999' 
TABS,ioos:station:wmo:42049:1,2009-06-02T23:30:00Z,28.3507,-96.0058,2.0,271.8770643,15.26818915,-99999.0,'11111222,11111222,99999999' 
TABS,ioos:station:wmo:42049:1,2009-06-03T00:00:00Z,28.3507,-96.0058,2.0,277.274662,16.19030883,-99999.0,'11111222,11111222,99999999' 
TABS,ioos:station:wmo:42049:1,2009-06-03T00:30:00Z,28.3507,-96.0058,2.0,285.8455286,18.05607377,-99999.0,'11111222,11111222,99999999' 
TABS,ioos:station:wmo:42049:1,2009-06-03T01:00:00Z,28.3507,-96.0058,2.0,288.760751,17.81655971,-99999.0,'11111222,11111222,99999999' 
TABS,ioos:station:wmo:42049:1,2009-06-03T01:30:00Z,28.3507,-96.0058,2.0,289.4486389,19.31188753,-99999.0,'11111222,11111222,99999999' 
TABS,ioos:station:wmo:42049:1,2009-06-03T02:00:00Z,28.3507,-96.0058,2.0,296.614048,21.07271221,-99999.0,'11111222,11111222,99999999' 
TABS,ioos:station:wmo:42049:1,2009-06-03T02:30:00Z,28.3507,-96.0058,2.0,302.6549366,23.48152039,-99999.0,'11111222,11111222,99999999' 
TABS,ioos:station:wmo:42049:1,2009-06-03T03:00:00Z,28.3507,-96.0058,2.0,303.7354686,24.68693987,-99999.0,'11111222,11111222,99999999' 
TABS,ioos:station:wmo:42049:1,2009-06-03T03:30:00Z,28.3507,-96.0058,2.0,311.805806,26.01245279,-99999.0,'11111222,11111222,99999999' 
TABS,ioos:station:wmo:42049:1,2009-06-03T04:00:00Z,28.3507,-96.0058,2.0,311.8657827,21.33704994,-99999.0,'11111222,11111222,99999999' 
TABS,ioos:station:wmo:42049:1,2009-06-03T04:30:00Z,28.3507,-96.0058,2.0,316.4940419,23.32830898,-99999.0,'11111222,11111222,99999999' 
TABS,ioos:station:wmo:42049:1,2009-06-03T05:00:00Z,28.3507,-96.0058,2.0,317.4547687,27.07874812,-99999.0,'11111222,11111222,99999999' 
TABS,ioos:station:wmo:42049:1,2009-06-03T05:30:00Z,28.3507,-96.0058,2.0,319.3604624,29.01879391,-99999.0,'11111222,11111222,99999999' 
TABS,ioos:station:wmo:42049:1,2009-06-03T06:00:00Z,28.3507,-96.0058,2.0,326.0961134,29.68776179,-99999.0,'11111222,11111222,99999999' 
TABS,ioos:station:wmo:42049:1,2009-06-03T06:30:00Z,28.3507,-96.0058,2.0,329.6857711,27.69708468,-99999.0,'11111222,11111222,99999999' 
TABS,ioos:station:wmo:42049:1,2009-06-03T07:00:00Z,28.3507,-96.0058,2.0,329.6624847,24.33195635,-99999.0,'11111222,11111222,99999999' 
TABS,ioos:station:wmo:42049:1,2009-06-03T07:30:00Z,28.3507,-96.0058,2.0,331.8809971,27.37059736,-99999.0,'11111222,11111222,99999999' 
TABS,ioos:station:wmo:42049:1,2009-06-03T08:00:00Z,28.3507,-96.0058,2.0,331.3441335,24.02242286,-99999.0,'11111222,11111222,99999999' 
TABS,ioos:station:wmo:42049:1,2009-06-03T08:30:00Z,28.3507,-96.0058,2.0,337.1069767,21.43870565,-99999.0,'11111222,11111222,99999999' 
TABS,ioos:station:wmo:42049:1,2009-06-03T09:00:00Z,28.3507,-96.0058,2.0,343.8143795,21.2732179,-99999.0,'11111222,11111222,99999999' 
TABS,ioos:station:wmo:42049:1,2009-06-03T09:30:00Z,28.3507,-96.0058,2.0,348.798465,22.85541511,-99999.0,'11111222,11111222,99999999' 
TABS,ioos:station:wmo:42049:1,2009-06-03T10:00:00Z,28.3507,-96.0058,2.0,353.4564081,26.41207489,-99999.0,'11111222,11111222,99999999' 
TABS,ioos:station:wmo:42049:1,2009-06-03T10:30:00Z,28.3507,-96.0058,2.0,355.0266733,26.06815107,-99999.0,'11111222,11111222,99999999' 
TABS,ioos:station:wmo:42049:1,2009-06-03T11:00:00Z,28.3507,-96.0058,2.0,357.6699324,28.28338912,-99999.0,'11111222,11111222,99999999' 
TABS,ioos:station:wmo:42049:1,2009-06-03T11:30:00Z,28.3507,-96.0058,2.0,3.74793536,28.15019893,-99999.0,'11111222,11111222,99999999' 
TABS,ioos:station:wmo:42049:1,2009-06-03T12:00:00Z,28.3507,-96.0058,2.0,19.36761809,31.08930684,-99999.0,'11111222,11111222,99999999' 
TABS,ioos:station:wmo:42049:1,2009-06-03T12:30:00Z,28.3507,-96.0058,2.0,19.33045631,33.59381491,-99999.0,'11111222,11111222,99999999' 
TABS,ioos:station:wmo:42049:1,2009-06-03T13:00:00Z,28.3507,-96.0058,2.0,24.47769286,36.7092931,-99999.0,'11111222,11111222,99999999' 
TABS,ioos:station:wmo:42049:1,2009-06-03T13:30:00Z,28.3507,-96.0058,2.0,28.24260508,37.27781109,-99999.0,'11111222,11111222,99999999' 
TABS,ioos:station:wmo:42049:1,2009-06-03T14:00:00Z,28.3507,-96.0058,2.0,30.89889057,36.27883405,-99999.0,'11111222,11111222,99999999' 
TABS,ioos:station:wmo:42049:1,2009-06-03T14:30:00Z,28.3507,-96.0058,2.0,31.03382098,37.94066025,-99999.0,'11111222,11111222,99999999' 
TABS,ioos:station:wmo:42049:1,2009-06-03T15:00:00Z,28.3507,-96.0058,2.0,31.23735677,40.24431637,-99999.0,'11111222,11111222,99999999' 
TABS,ioos:station:wmo:42049:1,2009-06-03T15:30:00Z,28.3507,-96.0058,2.0,30.67446663,42.43786635,-99999.0,'11111222,11111222,99999999' 
TABS,ioos:station:wmo:42049:1,2009-06-03T16:00:00Z,28.3507,-96.0058,2.0,32.57709677,41.54656424,-99999.0,'11111222,11111222,99999999' 
TABS,ioos:station:wmo:42049:1,2009-06-03T16:30:00Z,28.3507,-96.0058,2.0,43.42471453,38.58018662,-99999.0,'11111222,11111222,99999999' 
TABS,ioos:station:wmo:42049:1,2009-06-03T17:00:00Z,28.3507,-96.0058,2.0,51.52282441,39.21543064,-99999.0,'11111222,11111222,99999999' 
TABS,ioos:station:wmo:42049:1,2009-06-03T17:30:00Z,28.3507,-96.0058,2.0,59.21126387,38.19291296,-99999.0,'11111222,11111222,99999999' 
TABS,ioos:station:wmo:42049:1,2009-06-03T18:00:00Z,28.3507,-96.0058,2.0,61.88592694,37.22177454,-99999.0,'11111222,11111222,99999999' 
TABS,ioos:station:wmo:42049:1,2009-06-03T18:30:00Z,28.3507,-96.0058,2.0,67.36459305,36.74000136,-99999.0,'11111222,11111222,99999999' 
TABS,ioos:station:wmo:42049:1,2009-06-03T19:00:00Z,28.3507,-96.0058,2.0,67.84340563,34.44343334,-99999.0,'11111222,11111222,99999999' 
TABS,ioos:station:wmo:42049:1,2009-06-03T19:30:00Z,28.3507,-96.0058,2.0,75.37983101,35.93351917,-99999.0,'11111222,11111222,99999999' 
TABS,ioos:station:wmo:42049:1,2009-06-03T20:00:00Z,28.3507,-96.0058,2.0,77.46780768,36.4074388,-99999.0,'11111222,11111222,99999999' 
TABS,ioos:station:wmo:42049:1,2009-06-03T20:30:00Z,28.3507,-96.0058,2.0,79.18978681,38.2284109,-99999.0,'11111222,11111222,99999999' 
TABS,ioos:station:wmo:42049:1,2009-06-03T21:00:00Z,28.3507,-96.0058,2.0,79.01122737,37.09006606,-99999.0,'11111222,11111222,99999999' 
TABS,ioos:station:wmo:42049:1,2009-06-03T21:30:00Z,28.3507,-96.0058,2.0,79.67312954,34.86477449,-99999.0,'11111222,11111222,99999999' 
TABS,ioos:station:wmo:42049:1,2009-06-03T22:00:00Z,28.3507,-96.0058,2.0,81.06481359,35.02504247,-99999.0,'11111222,11111222,99999999' 
TABS,ioos:station:wmo:42049:1,2009-06-03T22:30:00Z,28.3507,-96.0058,2.0,81.28266746,36.2892119,-99999.0,'11111222,11111222,99999999' 
TABS,ioos:station:wmo:42049:1,2009-06-03T23:00:00Z,28.3507,-96.0058,2.0,81.7911366,35.99884026,-99999.0,'11111222,11111222,99999999' 
TABS,ioos:station:wmo:42049:1,2009-06-03T23:30:00Z,28.3507,-96.0058,2.0,80.87836965,33.17959011,-99999.0,'11111222,11111222,99999999' 
TABS,ioos:station:wmo:42049:1,2009-06-04T00:00:00Z,28.3507,-96.0058,2.0,77.27348884,33.00074242,-99999.0,'11111222,11111222,99999999' 
TABS,ioos:station:wmo:42049:1,2009-06-04T00:30:00Z,28.3507,-96.0058,2.0,81.49774876,29.8278075,-99999.0,'11111222,11111222,99999999' 
TABS,ioos:station:wmo:42049:1,2009-06-04T01:00:00Z,28.3507,-96.0058,2.0,77.03330419,30.79526262,-99999.0,'11111222,11111222,99999999' 
TABS,ioos:station:wmo:42049:1,2009-06-04T01:30:00Z,28.3507,-96.0058,2.0,74.94846318,26.41627718,-99999.0,'11111222,11111222,99999999' 
TABS,ioos:station:wmo:42049:1,2009-06-04T02:00:00Z,28.3507,-96.0058,2.0,78.76941846,24.08112331,-99999.0,'11111222,11111222,99999999' 
TABS,ioos:station:wmo:42049:1,2009-06-04T02:30:00Z,28.3507,-96.0058,2.0,66.4427663,24.12015133,-99999.0,'11111222,11111222,99999999' 
TABS,ioos:station:wmo:42049:1,2009-06-04T03:00:00Z,28.3507,-96.0058,2.0,60.42857124,23.36328958,-99999.0,'11111222,11111222,99999999' 
TABS,ioos:station:wmo:42049:1,2009-06-04T03:30:00Z,28.3507,-96.0058,2.0,62.79233205,24.32100532,-99999.0,'11111222,11111222,99999999' 
TABS,ioos:station:wmo:42049:1,2009-06-04T04:00:00Z,28.3507,-96.0058,2.0,60.08068153,26.06353967,-99999.0,'11111222,11111222,99999999' 
TABS,ioos:station:wmo:42049:1,2009-06-04T04:30:00Z,28.3507,-96.0058,2.0,51.07984919,28.17403769,-99999.0,'11111222,11111222,99999999' 
TABS,ioos:station:wmo:42049:1,2009-06-04T05:00:00Z,28.3507,-96.0058,2.0,46.54525099,29.1080281,-99999.0,'11111222,11111222,99999999' 
TABS,ioos:station:wmo:42049:1,2009-06-04T05:30:00Z,28.3507,-96.0058,2.0,43.96205091,28.88298115,-99999.0,'11111222,11111222,99999999' 
TABS,ioos:station:wmo:42049:1,2009-06-04T06:00:00Z,28.3507,-96.0058,2.0,48.99037545,29.67141722,-99999.0,'11111222,11111222,99999999' 
TABS,ioos:station:wmo:42049:1,2009-06-04T06:30:00Z,28.3507,-96.0058,2.0,44.71737853,32.95864833,-99999.0,'11111222,11111222,99999999' 
TABS,ioos:station:wmo:42049:1,2009-06-04T07:00:00Z,28.3507,-96.0058,2.0,39.62735875,31.26419678,-99999.0,'11111222,11111222,99999999' 
TABS,ioos:station:wmo:42049:1,2009-06-04T07:30:00Z,28.3507,-96.0058,2.0,41.19261293,32.79729257,-99999.0,'11111222,11111222,99999999' 
TABS,ioos:station:wmo:42049:1,2009-06-04T08:00:00Z,28.3507,-96.0058,2.0,46.86603482,32.79178708,-99999.0,'11111222,11111222,99999999' 
TABS,ioos:station:wmo:42049:1,2009-06-04T08:30:00Z,28.3507,-96.0058,2.0,58.20872401,33.48344666,-99999.0,'11111222,11111222,99999999' 
TABS,ioos:station:wmo:42049:1,2009-06-04T09:00:00Z,28.3507,-96.0058,2.0,59.04438985,36.51033415,-99999.0,'11111222,11111222,99999999' 
TABS,ioos:station:wmo:42049:1,2009-06-04T09:30:00Z,28.3507,-96.0058,2.0,40.57331226,30.96465727,-99999.0,'11111222,11111222,99999999' 
TABS,ioos:station:wmo:42049:1,2009-06-04T10:00:00Z,28.3507,-96.0058,2.0,26.20233815,27.5399655,-99999.0,'11111222,11111222,99999999' 
TABS,ioos:station:wmo:42049:1,2009-06-04T10:30:00Z,28.3507,-96.0058,2.0,27.03981493,24.83462301,-99999.0,'11111222,11111222,99999999' 
TABS,ioos:station:wmo:42049:1,2009-06-04T11:00:00Z,28.3507,-96.0058,2.0,30.11470486,23.83749148,-99999.0,'11111222,11111222,99999999' 
TABS,ioos:station:wmo:42049:1,2009-06-04T11:30:00Z,28.3507,-96.0058,2.0,32.40039202,22.30182504,-99999.0,'11111222,11111222,99999999' 
TABS,ioos:station:wmo:42049:1,2009-06-04T12:00:00Z,28.3507,-96.0058,2.0,28.43145146,23.48222519,-99999.0,'11111222,11111222,99999999' 
TABS,ioos:station:wmo:42049:1,2009-06-04T12:30:00Z,28.3507,-96.0058,2.0,25.81255725,25.19371549,-99999.0,'11111222,11111222,99999999' 
TABS,ioos:station:wmo:42049:1,2009-06-04T13:00:00Z,28.3507,-96.0058,2.0,26.06114526,24.40091802,-99999.0,'11111222,11111222,99999999' 
TABS,ioos:station:wmo:42049:1,2009-06-04T13:30:00Z,28.3507,-96.0058,2.0,38.12780802,25.0560372,-99999.0,'11111222,11111222,99999999' 
TABS,ioos:station:wmo:42049:1,2009-06-04T14:00:00Z,28.3507,-96.0058,2.0,37.43954235,25.15124251,-99999.0,'11111222,11111222,99999999' 
TABS,ioos:station:wmo:42049:1,2009-06-04T14:30:00Z,28.3507,-96.0058,2.0,45.02926332,27.7893001,-99999.0,'11111222,11111222,99999999' 
TABS,ioos:station:wmo:42049:1,2009-06-04T15:00:00Z,28.3507,-96.0058,2.0,49.64276532,27.25647446,-99999.0,'11111222,11111222,99999999' 
TABS,ioos:station:wmo:42049:1,2009-06-04T15:30:00Z,28.3507,-96.0058,2.0,46.84771117,26.53737176,-99999.0,'11111222,11111222,99999999' 
TABS,ioos:station:wmo:42049:1,2009-06-04T16:00:00Z,28.3507,-96.0058,2.0,52.68806844,21.51264047,-99999.0,'11111222,11111222,99999999' 